Current Version              Previous Version:    01  02  03  04  05  06  07  08  09  10  11  12  13  14  15  16  17  18  19  20  21  22  23  24  25  26  27  28  29  30  
   31  32  33  34  35  36  37  38  39  40  41  42  43  44  45  46  47  48  49  50  51  52  53  54  55  56  57  58  59  60  

[Printable]
471
ASUS44 KEWX 220202
RWRTX
SOUTH TEXAS REGIONAL WEATHER ROUNDUP
NATIONAL WEATHER SERVICE AUSTIN/SAN ANTONIO TX
900 PM CDT SUN SEP 21 2014

NOTE: "FAIR" INDICATED FEW OR NO CLOUDS BELOW 12,000 FEET WITH NO
SIGNIFICANT WEATHER AND/OR OBSTRUCTIONS TO VISIBILITY.

* - THESE STATIONS ARE NOT NWS OR FAA STATIONS...AND ARE NOT SUBJECT
    TO NWS AND FAA QUALITY CONTROL.

TXZ171-172-183>190-220300-
TEXAS HILL COUNTRY AND EDWARDS PLATEAU

CITY           SKY/WX    TMP DP  RH WIND       PRES   REMARKS
JUNCTION       PTCLDY    78  63  59 E6        30.08R
*LLANO         CLEAR     81  66  61 CALM      30.09R
BURNET         CLEAR     78  65  63 CALM      30.10R
*HORSESHOE BAY CLEAR     78  65  63 CALM      30.07R
*KERRVILLE     CLEAR     78  65  64 E3        30.09R
*FREDERICKSBRG CLEAR     75  65  70 CALM      30.09S
*ROCKSPRINGS   PTCLDY    75  66  73 CALM      30.12R
*BOERNE STAGE  CLEAR     79  61  53 E3        30.08R
*CASTROVILLE   CLEAR     83  60  45 E5        30.05R
HONDO          CLEAR     83  65  54 E7        30.05R
*UVALDE        CLEAR     78  73  83 S3        30.04R
DEL RIO        MOCLDY    81  70  69 SE10      30.02R
LAUGHLIN AFB   NOT AVBL
CARRIZO SPRGS  CLEAR     79  70  73 SE3       29.99R
$$

TXZ173-191>194-202-209-217>225-228-220300-
CENTRAL AND SOUTH CENTRAL TEXAS

CITY           SKY/WX    TMP DP  RH WIND       PRES   REMARKS
GEORGETOWN     CLEAR     81  66  61 SE3       30.06R
AUSTIN/BERGSTM PTCLDY    80  66  62 E5        30.04R
AUSTIN/MABRY   CLEAR     80  66  62 E3        30.05R
*AUSTIN/EXEC   PTCLDY    77  68  73 CALM      30.06R
*LAGO VISTA    PTCLDY    79  64  59 E7        30.08R
SAN MARCOS     CLEAR     77  64  65 E5        30.05R
NEW BRAUNFELS  CLEAR     79  66  64 E6        30.03R
RANDOLPH AFB   CLEAR     80  65  60 E5        30.04R
PT SAN ANTONIO CLEAR     85  63  48 E10       30.02R
SAN ANTONIO    PTCLDY    83  64  52 E8        30.04R
STINSON FIELD  CLEAR     85  63  47 E8        30.01R
*PLEASANTON    CLEAR     82  64  53 NE3       30.02R
*LA GRANGE     CLEAR     78  72  83 CALM      30.02R
*GIDDINGS      CLEAR     76  68  75 CALM      30.07R
*GONZALES      CLEAR     81  68  65 E3        30.02R
$$

TXZ163>164-176>182-195>201-210>213-226-227-235-220300-
SOUTHEAST TEXAS

CITY           SKY/WX    TMP DP  RH WIND       PRES   REMARKS
COLLEGE STN    CLEAR     82  68  62 CALM      30.03R
*BRYAN         CLEAR    N/A N/A N/A CALM      30.03R
*CALDWELL      CLEAR     77  70  78 CALM      30.06R
*CROCKETT      CLEAR     77  73  88 CALM      30.06R
*BRENHAM       CLEAR     81  69  67 CALM      30.04R
HUNTSVILLE     CLEAR     79  68  69 CALM      30.04R
CONROE         CLEAR     74  71  91 CALM      30.03R
HOUSTON BUSH   PTCLDY    77  71  82 CALM      30.02R
HOUSTON HOBBY  PTCLDY    79  72  79 SE3       30.01R
*HOUSTON SW AP CLEAR     71  69  93 CALM      30.02R
PEARLAND       CLEAR     80  73  79 CALM      30.02R
HOUSTON HOOKS  CLEAR     75  70  84 CALM      30.02R
ELLINGTON FLD  PTCLDY    82  68  61 CALM      30.01R
SUGAR LAND     CLEAR     75  70  84 CALM      30.01R
*HOUSTON EXEC  CLEAR     77  70  78 CALM      30.03R
*CLEVELAND MUN CLEAR     74  73  96 CALM      30.03R
*WHARTON       CLEAR     77  69  77 CALM      30.03R
$$

TXZ214>216-236>238-220300-
THE UPPER TEXAS COAST

CITY           SKY/WX    TMP DP  RH WIND       PRES   REMARKS
*ORANGE        CLEAR     75  75 100 CALM      30.02R
PORT ARTHUR    CLEAR     77  72  84 CALM      30.00R
GALVESTON      CLEAR     82  74  76 NE5       30.01R
ANGLETON       CLEAR     75  72  90 CALM      30.01R
*BAY CITY      CLEAR     78  72  83 CALM      30.01R
PALACIOS       CLEAR     78  70  76 E7        30.00R
$$

TXZ229>234-239>247-220300-
TEXAS COASTAL BEND AND RIO GRANDE PLAINS

CITY           SKY/WX    TMP DP  RH WIND       PRES   REMARKS
VICTORIA       CLEAR     79  70  74 E5        30.02R
*BEEVILLE      CLEAR     80  70  71 E7        30.01R
ROCKPORT       CLEAR     81  73  76 E15       30.00R
*PORT ARANSAS  PTCLDY    82  71  71 E15G22    29.99R
*PORT LAVACA   CLEAR     79  72  77 E7        30.01R
*INGLESIDE     CLEAR     83  72  69 E12       29.98R
CORPUS CHRISTI PTCLDY    82  72  71 E14G22    29.99R
CORPUS NAS     CLEAR     82  73  74 E17       29.98R
*ROBSTOWN      NOT AVBL
ALICE          CLEAR     78  73  84 E7        29.99R
KINGSVILLE NAS CLEAR     77  75  93 NE8       29.98R
COTULLA        CLOUDY    80  76  87 CALM      30.00R
*FAITH RANCH   CLEAR     81  72  74 E3        29.99S
LAREDO         PTCLDY    81  74  79 SE3       30.02R
$$

TXZ248>255-220300-
DEEP SOUTH TEXAS

CITY           SKY/WX    TMP DP  RH WIND       PRES   REMARKS
BROWNSVILLE    PTCLDY    80  76  87 E3        29.94R
PORT ISABEL    NOT AVBL
*SOUTH PADRE   PTCLDY    82  77  83 E9        29.93R HX  91
HARLINGEN      LGT RAIN  78  76  93 SE8       29.94R
*HEBBRONVILLE    N/A     80  72  76 E9        30.00R
MCALLEN        LGT RAIN  78  76  93 NE13G22   29.96R FOG
*WESLACO       PTCLDY    78  74  87 NE8       29.95R
FALFURRIAS     CLEAR    N/A N/A N/A NE7       29.97R
EDINBURG       CLOUDY    80  75  86 E5        29.97R
*ZAPATA        PTCLDY    82  69  64 E9        29.98R
$$

TXZ213>215-236>238-242>244-246-247-251-254-255-220300-
CMAN STATIONS

STATION/POSITION TIME  TEMP    WIND        PRES    WAVE
                       AIR SEA DIR/SP/G            HT/PER
                 (UTC) (F)     (DEG/KT/KT) (MB)    (FT/S)
SABINE PASS      0100   82 83   50/  1/  2 1015.8
SEA RIM ST PARK  0100   82     160/  3/  3 1016.0
NORTH JETTY/GLS  0100   83 83  110/  7/  8   N/A
EAGLE POINT      0100   83 84  140/  2/  3 1016.0
MORGANS POINT    0100   82        CALM     1015.9
MISSION/ARANSAS  0100           70/ 14     1016.0
PORT O`CONNOR    0100           80/ 13/ 17   N/A
PORT ARANSAS     0100   83 84   50/ 19/ 22 1015.4
MALAQUITE BEACH  0100   83 84   60/ 20/ 23 1014.0
BAFFIN BAY       0100   83 86   60/ 19/ 22 1014.4
PORT ISABEL      0100   83 85   60/  9/ 13 1013.9
$$

GMZ080-GMZ150>470-220300-
OFFSHORE BUOY REPORTS

STATION/POSITION TIME  TEMP    WIND        PRES    WAVE
                       AIR SEA DIR/SP/G            HT/PER
                 (UTC) (F)     (DEG/KT/KT) (MB)    (FT/S)
20 E GALVESTON   0200   83 84   60/  6/  8 1015.4    3/ 6
90 E PT ARANSAS  0200   83 85   50/ 19/ 23 1015.0    6/ 8
35 NE PT MANSFLD 0100   80 85  100/ 19/ 25 1013.0    5/ 8
200 E PT ISABEL  0100   83 85   60/ 12/ 16 1012.4    4/ 8
$$